Weather Roundup
Issued by NWS Corpus Christi, TX

Home | Current Version | Previous Version | Text Only | Print | Product List | Glossary On
Versions: 1 2 3 4 5 6 7 8 9 10 11 12 13 14 15 16 17 18 19 20 21 22 23 24 25 26 27 28 29 30 31 32 33 34 35 36 37 38 39 40 41 42 43 44 45 46 47 48 49 50
667
ASUS44 KCRP 170910
HRRCRP

SOUTH TEXAS REGIONAL WEATHER ROUNDUP
NATIONAL WEATHER SERVICE CORPUS CHRISTI TX
300 AM CST TUE JAN 17 2017


TXZ229>244-171000-
...CORPUS CHRISTI AREA OBSERVATIONS...

CITY           SKY/WX    TMP DP  RH WIND       PRES   REMARKS
CORPUS CHRISTI CLOUDY    69  69 100 S9        29.97S
NAS CORPUS CHR CLOUDY    69  69 100 S10       29.97S
ROCKPORT       FOG       70  68  93 S8        29.98S VSB 1
KINGSVILLE NAS CLOUDY    68  68 100 SE6       29.95F
ALICE          CLOUDY    69  67  93 SE7       29.95F
ORANGE GROVE   CLOUDY    69  69 100 SE7       29.97
FALFURRIAS     CLOUDY    71  67  89 SE7       29.95S
$$

...VICTORIA AREA OBSERVATIONS...

CITY           SKY/WX    TMP DP  RH WIND       PRES   REMARKS
VICTORIA       CLOUDY    72  70  93 S7        29.99S
BEEVILLE       CLOUDY    69  69 100 SE6       29.97F
PLEASANTON     CLOUDY    64  58  81 NE6       29.99S
SAN ANTONIO    DRIZZLE   59  57  93 NE5       30.01S FOG
$$

...LAREDO AREA OBSERVATIONS...

CITY           SKY/WX    TMP DP  RH WIND       PRES   REMARKS
LAREDO         CLOUDY    65  59  81 NE7       29.94F
COTULLA        CLOUDY    64  55  72 NE6       29.96R
DEL RIO        CLOUDY    55  49  80 S5        29.98F
MCALLEN        CLOUDY    71  68  90 SE8       29.95F FOG
HEBBRONVILLE   MOCLDY    63  60  90 SE3       29.95F
$$

...OTHER TEXAS OBSERVATIONS...

CITY           SKY/WX    TMP DP  RH WIND       PRES   REMARKS
BROWNSVILLE    MOCLDY    71  69  93 SE8       29.95F
HOUSTON        CLOUDY    71  69  93 S3        30.01S
COL. STATION   LGT RAIN  58  56  93 N13       30.04S
AUSTIN         CLOUDY    58  56  93 N12       30.05R
WACO           CLOUDY    55  47  74 N7        30.10S
FORT WORTH     CLOUDY    48  40  73 N9        30.14R
WICHITA FALLS  PTCLDY    37  33  85 NW8       30.14R
LUBBOCK        MOCLDY    35  32  88 N13       30.13R WCI  26
EL PASO        PTCLDY    42  36  79 N9        30.05R
$$

...MARINE OBSERVATIONS...

STATION/POSITION TIME  SKY/WX   TEMP    WIND        PRES    VSBY  WAVE   SWELL
                                AIR SEA DIR/SP/G                  HT/PER HT/PER
                 (UTC)          (F)     (DEG/KT/KT) (MB)    (MI)  (FT/S) (FT/S)
PORT ARANSAS     0900            66 63  160/  7/  7 1014.8R
BUOY 90 E PORT A 0850            74 73  150/ 14/ 17 1015.5S         5/ 7
BUOY 45 SE BAFFI 0750            71     160/ 12/ 12 1014.3          5/ 8   5/ 8
BUOY 200 E PT IS 0850            74 74  130/ 14/ 16 1016.5S         5/ 8   3/ 8
BUOY 15 E GALVES 0750            68 63  170/ 12/ 14 1016.7          3/ 7   2/ 7
$$




USA.gov is the U.S. government's official web portal to all federal, state and local government web resources and services.